Simultaneous Nadir Overpasses (SNOs) Predictions

Prediction of SNOs between GOES-16 and NOAA-19 Satellite Orbit:

Table of predicted SNOs for the next 14.0 days since TLE Epoch: 6/16/2022
Index Date Time (GOES-16) GOES-16 Lat,Lon NOAA-19 Lat,Lon Distance(km) Time Diff (sec)
1 06/16/2022 12:48:19 0.05, -75.21 0.12, -75.52 35.16 80
2 06/17/2022 12:39:08 0.04, -75.21 -0.57, -72.63 294.80 80
3 06/20/2022 00:57:07 -0.04, -75.21 -0.60, -77.52 264.93 80
4 06/21/2022 00:47:58 -0.04, -75.22 0.12, -74.64 65.95 80
5 06/22/2022 00:36:07 -0.04, -75.23 0.80, -71.76 396.88 80
6 06/23/2022 13:05:48 0.03, -75.27 1.04, -79.49 482.99 80
7 06/24/2022 12:53:57 0.03, -75.29 0.35, -76.61 151.51 80
8 06/25/2022 12:42:07 0.03, -75.30 -0.35, -73.73 180.06 80
9 06/28/2022 01:05:28 -0.02, -75.32 -0.79, -78.63 377.40 80
10 06/29/2022 00:53:37 -0.01, -75.34 -0.11, -75.74 45.75 80
